Location: Newark
(48.8656°N, 2.3211°E)
Time: 11:46:53
(UTC+00:00)

Envisat - Pass Details

Date: 10 December 2019
Orbit: 764 x 766 km, 98.1° (Epoch: 18 January)

Event Time Altitude Azimuth Distance (km) Brightness Sun altitude
Rises 19:17:38 0° 218° (SW) 3,224 6.7 -32.4°
Reaches altitude 10° 19:21:12 10° 245° (WSW) 2,304 6.1 -33.0°
Maximum altitude 19:23:38 13° 274° (W) 2,078 6.0 -33.4°
Drops below altitude 10° 19:26:05 10° 303° (WNW) 2,313 6.1 -33.8°
Sets 19:29:42 0° 330° (NNW) 3,246 6.7 -34.4°
